Track ORBICRAFT-ZORKIY now! 10-day predictions ORBICRAFT-ZORKIY is classified as:
1 47960U 21022AE 22144.11037856 .00007070 00000-0 46793-3 0 9993 2 47960 97.5343 44.3150 0019174 225.9436 270.3918 15.07496235 63842